EDW81K LHBP-LSZH

Flight info

Callsign EDW81K
Flight time 1h 13m
Altitude 34000
Route GILEP DCT ZOLKU DCT SUNIS DCT SETAL DCT ERKIR DCT KPT L856 NEGRA
Aircraft A20N/M-SDE2E3FGHIRWXY/LB1

Departure

Time 2026-04-26 15:54
Airport Budapest Liszt Ferenc International Airport (LHBP)

Arrival

Time 2026-04-26 17:07
Airport Zürich Airport (LSZH)
Time Latitude Longitude Altitude Speed Heading
2026-04-26 15:37 47.43583 19.26375 484 ft 0 kts 83°
2026-04-26 15:47 47.43593 19.26394 480 ft 6 kts 38°
2026-04-26 15:47 47.43639 19.26381 483 ft 10 kts 326°
2026-04-26 15:48 47.43678 19.26271 487 ft 15 kts 274°
2026-04-26 15:48 47.43684 19.26076 483 ft 22 kts 299°
2026-04-26 15:48 47.43722 19.25901 486 ft 19 kts 236°
2026-04-26 15:48 47.43607 19.25749 485 ft 26 kts 221°
2026-04-26 15:49 47.43464 19.25554 480 ft 30 kts 223°
2026-04-26 15:49 47.43350 19.25396 480 ft 20 kts 223°
2026-04-26 15:49 47.43264 19.25282 482 ft 15 kts 222°
2026-04-26 15:49 47.43206 19.25204 479 ft 0 kts 222°
2026-04-26 15:50 47.43203 19.25200 478 ft 2 kts 222°
2026-04-26 15:50 47.43180 19.25169 481 ft 6 kts 222°
2026-04-26 15:50 47.43150 19.25130 483 ft 0 kts 222°
2026-04-26 15:52 47.43141 19.25119 485 ft 4 kts 222°
2026-04-26 15:53 47.43104 19.25055 484 ft 12 kts 243°
2026-04-26 15:53 47.43116 19.24910 482 ft 18 kts 306°
2026-04-26 15:53 47.43296 19.24614 483 ft 79 kts 312°
2026-04-26 15:53 47.43852 19.23718 489 ft 153 kts 313°
2026-04-26 15:54 47.44666 19.22438 904 ft 180 kts 313°
2026-04-26 15:54 47.45547 19.21045 1666 ft 197 kts 312°
2026-04-26 15:54 47.46512 19.19468 2382 ft 216 kts 311°
2026-04-26 15:54 47.47555 19.17756 3102 ft 231 kts 311°
2026-04-26 15:55 47.48594 19.15898 3945 ft 242 kts 299°
2026-04-26 15:55 47.49053 19.13442 4637 ft 256 kts 269°
2026-04-26 15:55 47.48612 19.10895 5585 ft 260 kts 240°
2026-04-26 15:55 47.47417 19.08863 6485 ft 267 kts 218°
2026-04-26 15:56 47.45858 19.07376 7487 ft 268 kts 208°
2026-04-26 15:56 47.44174 19.06142 8431 ft 272 kts 205°
2026-04-26 15:56 47.42436 19.04974 9351 ft 276 kts 204°
2026-04-26 15:56 47.40673 19.03790 10218 ft 283 kts 205°
2026-04-26 15:57 47.38821 19.02521 10639 ft 305 kts 205°
2026-04-26 15:57 47.36858 19.01150 11018 ft 326 kts 206°
2026-04-26 15:57 47.34790 18.99689 11756 ft 332 kts 206°
2026-04-26 15:57 47.33376 18.98687 12322 ft 335 kts 206°
2026-04-26 15:58 47.30906 18.95994 13358 ft 339 kts 231°
2026-04-26 15:58 47.29772 18.92939 14122 ft 343 kts 253°
2026-04-26 15:58 47.29477 18.89463 14848 ft 347 kts 274°
2026-04-26 15:58 47.30070 18.86017 15575 ft 351 kts 295°
2026-04-26 15:59 47.31307 18.82894 16288 ft 355 kts 303°
2026-04-26 15:59 47.32714 18.79882 16987 ft 358 kts 304°
2026-04-26 15:59 47.34130 18.76835 17622 ft 364 kts 303°
2026-04-26 15:59 47.35545 18.73653 17903 ft 380 kts 302°
2026-04-26 16:00 47.36990 18.70271 17993 ft 399 kts 302°
2026-04-26 16:00 47.38482 18.66697 17997 ft 416 kts 301°
2026-04-26 16:00 47.39961 18.63117 18003 ft 398 kts 301°
2026-04-26 16:00 47.41234 18.59621 18003 ft 377 kts 291°
2026-04-26 16:01 47.41778 18.55962 17934 ft 360 kts 272°
2026-04-26 16:01 47.41518 18.52300 17650 ft 360 kts 258°
2026-04-26 16:01 47.40990 18.48671 17603 ft 364 kts 258°
2026-04-26 16:01 47.40474 18.44985 18120 ft 367 kts 259°
2026-04-26 16:02 47.39996 18.41282 18814 ft 369 kts 259°
2026-04-26 16:02 47.39541 18.37536 19477 ft 372 kts 260°
2026-04-26 16:02 47.39096 18.33747 20074 ft 376 kts 260°
2026-04-26 16:02 47.38801 18.31215 20463 ft 379 kts 260°
2026-04-26 16:03 47.38202 18.26059 21254 ft 384 kts 260°
2026-04-26 16:03 47.37748 18.22163 21868 ft 386 kts 260°
2026-04-26 16:03 47.37289 18.18244 22448 ft 389 kts 260°
2026-04-26 16:03 47.36824 18.14291 22984 ft 393 kts 260°
2026-04-26 16:04 47.36354 18.10309 23510 ft 396 kts 260°
2026-04-26 16:04 47.35877 18.06286 24031 ft 399 kts 260°
2026-04-26 16:04 47.35397 18.02241 24541 ft 402 kts 260°
2026-04-26 16:04 47.34910 17.98156 25025 ft 406 kts 260°
2026-04-26 16:05 47.34418 17.94044 25506 ft 409 kts 260°
2026-04-26 16:05 47.33922 17.89909 25965 ft 412 kts 260°
2026-04-26 16:05 47.33419 17.85733 26369 ft 416 kts 260°
2026-04-26 16:05 47.32911 17.81525 26824 ft 418 kts 260°
2026-04-26 16:06 47.32399 17.77299 27229 ft 421 kts 260°
2026-04-26 16:06 47.31881 17.73033 27651 ft 423 kts 260°
2026-04-26 16:06 47.31360 17.68759 28055 ft 425 kts 260°
2026-04-26 16:06 47.30834 17.64461 28419 ft 428 kts 260°
2026-04-26 16:07 47.30303 17.60132 28787 ft 430 kts 259°
2026-04-26 16:07 47.29768 17.55789 29148 ft 432 kts 259°
2026-04-26 16:07 47.29230 17.51429 29483 ft 434 kts 259°
2026-04-26 16:07 47.28687 17.47048 29808 ft 436 kts 259°
2026-04-26 16:08 47.28139 17.42645 30134 ft 438 kts 259°
2026-04-26 16:08 47.27587 17.38218 30456 ft 441 kts 259°
2026-04-26 16:08 47.27031 17.33774 30776 ft 443 kts 259°
2026-04-26 16:08 47.26470 17.29309 31100 ft 445 kts 259°
2026-04-26 16:09 47.25906 17.24833 31476 ft 445 kts 259°
2026-04-26 16:09 47.25341 17.20358 31888 ft 444 kts 259°
2026-04-26 16:09 47.24776 17.15904 32287 ft 443 kts 259°
2026-04-26 16:09 47.24209 17.11450 32667 ft 442 kts 259°
2026-04-26 16:10 47.23643 17.07013 33039 ft 441 kts 259°
2026-04-26 16:10 47.23075 17.02581 33391 ft 440 kts 259°
2026-04-26 16:10 47.22507 16.98159 33726 ft 440 kts 259°
2026-04-26 16:10 47.21937 16.93734 33954 ft 439 kts 259°
2026-04-26 16:11 47.21367 16.89329 33998 ft 438 kts 259°
2026-04-26 16:11 47.20226 16.80542 34001 ft 438 kts 259°
2026-04-26 16:12 47.19076 16.71750 34001 ft 438 kts 259°
2026-04-26 16:12 47.17341 16.58580 34001 ft 438 kts 259°
2026-04-26 16:13 47.16176 16.49803 34000 ft 438 kts 259°
2026-04-26 16:13 47.15000 16.41005 34001 ft 438 kts 259°
2026-04-26 16:14 47.14378 16.32132 33999 ft 438 kts 271°
2026-04-26 16:15 47.15022 16.18789 34001 ft 438 kts 274°
2026-04-26 16:15 47.15472 16.09864 34001 ft 439 kts 274°
2026-04-26 16:16 47.16133 15.96450 33994 ft 439 kts 274°
2026-04-26 16:16 47.16566 15.87510 33998 ft 439 kts 274°
2026-04-26 16:17 47.16991 15.78564 33998 ft 439 kts 274°
2026-04-26 16:17 47.17409 15.69620 33999 ft 439 kts 274°
2026-04-26 16:18 47.18024 15.56187 33996 ft 439 kts 274°
2026-04-26 16:19 47.18625 15.42734 33999 ft 443 kts 274°
2026-04-26 16:20 47.19210 15.29258 34000 ft 440 kts 274°
2026-04-26 16:20 47.19784 15.15673 34001 ft 444 kts 273°
2026-04-26 16:21 47.20158 15.06608 34000 ft 445 kts 273°
2026-04-26 16:21 47.20527 14.97488 34000 ft 446 kts 273°
2026-04-26 16:22 47.20886 14.88429 34001 ft 442 kts 273°
2026-04-26 16:22 47.21236 14.79431 34000 ft 440 kts 273°
2026-04-26 16:23 47.21577 14.70457 34000 ft 441 kts 273°
2026-04-26 16:23 47.21915 14.61391 34001 ft 443 kts 273°
2026-04-26 16:24 47.22245 14.52359 33986 ft 441 kts 273°
2026-04-26 16:24 47.22565 14.43413 33998 ft 443 kts 273°
2026-04-26 16:25 47.22883 14.34288 34000 ft 447 kts 273°
2026-04-26 16:25 47.23309 14.25204 34002 ft 445 kts 278°
2026-04-26 16:26 47.24344 14.17786 33999 ft 447 kts 282°
2026-04-26 16:26 47.25886 14.07259 34001 ft 449 kts 282°
2026-04-26 16:27 47.27183 13.98292 34001 ft 452 kts 282°
2026-04-26 16:27 47.28479 13.89272 34003 ft 449 kts 282°
2026-04-26 16:28 47.29758 13.80309 34002 ft 451 kts 282°
2026-04-26 16:28 47.31040 13.71273 34002 ft 450 kts 282°
2026-04-26 16:29 47.32306 13.62301 34002 ft 449 kts 282°
2026-04-26 16:29 47.33566 13.53317 34001 ft 447 kts 281°
2026-04-26 16:30 47.34813 13.44369 34002 ft 446 kts 281°
2026-04-26 16:30 47.36047 13.35455 34001 ft 442 kts 281°
2026-04-26 16:31 47.37278 13.26514 34000 ft 447 kts 281°
2026-04-26 16:31 47.38499 13.17597 34002 ft 441 kts 281°
2026-04-26 16:32 47.39508 13.10176 34001 ft 446 kts 281°
2026-04-26 16:32 47.40931 12.99660 34001 ft 447 kts 281°
2026-04-26 16:33 47.42131 12.90720 34001 ft 443 kts 281°
2026-04-26 16:33 47.43320 12.81818 34000 ft 441 kts 281°
2026-04-26 16:34 47.44500 12.72917 33997 ft 442 kts 281°
2026-04-26 16:34 47.45678 12.63983 34000 ft 443 kts 281°
2026-04-26 16:35 47.46850 12.55033 34016 ft 444 kts 281°
2026-04-26 16:35 47.48017 12.46062 34009 ft 445 kts 281°
2026-04-26 16:36 47.49170 12.37148 33999 ft 443 kts 281°
2026-04-26 16:36 47.50319 12.28203 33999 ft 444 kts 281°
2026-04-26 16:37 47.51277 12.20702 33998 ft 442 kts 281°
2026-04-26 16:37 47.52412 12.11760 34000 ft 442 kts 280°
2026-04-26 16:38 47.53536 12.02863 34000 ft 442 kts 280°
2026-04-26 16:38 47.54696 11.93873 34001 ft 444 kts 281°
2026-04-26 16:39 47.55888 11.84923 34001 ft 443 kts 281°
2026-04-26 16:39 47.57078 11.75902 34001 ft 447 kts 281°
2026-04-26 16:40 47.58252 11.66904 34001 ft 444 kts 281°
2026-04-26 16:40 47.59416 11.57918 34000 ft 443 kts 281°
2026-04-26 16:41 47.60568 11.48957 34000 ft 442 kts 281°
2026-04-26 16:41 47.61713 11.40003 34001 ft 442 kts 281°
2026-04-26 16:42 47.62853 11.31023 33996 ft 443 kts 281°
2026-04-26 16:42 47.63986 11.22045 34000 ft 441 kts 280°
2026-04-26 16:43 47.65105 11.13116 34001 ft 441 kts 280°
2026-04-26 16:43 47.66219 11.04164 34001 ft 443 kts 280°
2026-04-26 16:44 47.67330 10.95184 33997 ft 442 kts 280°
2026-04-26 16:44 47.68427 10.86252 34002 ft 443 kts 280°
2026-04-26 16:45 47.69529 10.77223 34010 ft 443 kts 280°
2026-04-26 16:45 47.70613 10.68277 33493 ft 437 kts 280°
2026-04-26 16:46 47.71020 10.64902 33000 ft 438 kts 280°
2026-04-26 16:46 47.71554 10.60459 32235 ft 439 kts 280°
2026-04-26 16:46 47.72091 10.55975 31430 ft 441 kts 280°
2026-04-26 16:46 47.72627 10.51492 30606 ft 442 kts 280°
2026-04-26 16:47 47.73162 10.46989 29899 ft 441 kts 280°
2026-04-26 16:47 47.73692 10.42522 29278 ft 437 kts 280°
2026-04-26 16:47 47.74207 10.38095 28708 ft 432 kts 278°
2026-04-26 16:47 47.74492 10.33686 28119 ft 428 kts 272°
2026-04-26 16:48 47.74458 10.29281 27526 ft 424 kts 268°
2026-04-26 16:48 47.74347 10.24938 26900 ft 421 kts 268°
2026-04-26 16:48 47.74250 10.20597 26285 ft 417 kts 268°
2026-04-26 16:48 47.74156 10.16315 25689 ft 414 kts 268°
2026-04-26 16:49 47.74060 10.12062 25119 ft 410 kts 268°
2026-04-26 16:49 47.73962 10.07860 24543 ft 406 kts 268°
2026-04-26 16:49 47.73863 10.03690 23992 ft 401 kts 268°
2026-04-26 16:49 47.73762 9.99563 23393 ft 398 kts 268°
2026-04-26 16:50 47.73660 9.95437 22501 ft 402 kts 268°
2026-04-26 16:50 47.73555 9.91250 21414 ft 411 kts 268°
2026-04-26 16:50 47.73447 9.86959 20237 ft 419 kts 268°
2026-04-26 16:50 47.73335 9.82600 18969 ft 428 kts 268°
2026-04-26 16:51 47.73219 9.78170 18053 ft 427 kts 268°
2026-04-26 16:51 47.73103 9.73786 17258 ft 422 kts 268°
2026-04-26 16:51 47.72987 9.69454 16496 ft 417 kts 268°
2026-04-26 16:51 47.72871 9.65190 15804 ft 410 kts 268°
2026-04-26 16:52 47.72756 9.61056 15570 ft 391 kts 268°
2026-04-26 16:52 47.72682 9.58423 15444 ft 379 kts 268°
2026-04-26 16:52 47.72536 9.53336 15216 ft 358 kts 268°
2026-04-26 16:52 47.72431 9.49707 14845 ft 349 kts 267°
2026-04-26 16:53 47.72303 9.46130 14327 ft 346 kts 263°
2026-04-26 16:53 47.71719 9.42687 13787 ft 344 kts 248°
2026-04-26 16:53 47.70538 9.39620 13264 ft 341 kts 232°
2026-04-26 16:53 47.69043 9.36907 12737 ft 339 kts 231°
2026-04-26 16:54 47.67555 9.34214 12225 ft 336 kts 231°
2026-04-26 16:54 47.66082 9.31540 11715 ft 333 kts 231°
2026-04-26 16:54 47.64621 9.28883 11214 ft 331 kts 231°
2026-04-26 16:54 47.63171 9.26248 10700 ft 329 kts 231°
2026-04-26 16:55 47.61731 9.23629 10284 ft 323 kts 231°
2026-04-26 16:55 47.60344 9.21108 10152 ft 309 kts 231°
2026-04-26 16:55 47.59013 9.18687 10028 ft 296 kts 231°
2026-04-26 16:55 47.57742 9.16376 9897 ft 284 kts 231°
2026-04-26 16:56 47.55287 9.11903 9192 ft 278 kts 231°
2026-04-26 16:56 47.54072 9.09686 8803 ft 277 kts 231°
2026-04-26 16:56 47.52862 9.07477 8411 ft 275 kts 231°
2026-04-26 16:57 47.51828 9.05121 8010 ft 273 kts 250°
2026-04-26 16:57 47.51578 9.02370 7601 ft 271 kts 276°
2026-04-26 16:57 47.53167 8.97496 6801 ft 269 kts 312°
2026-04-26 16:58 47.54442 8.95472 6417 ft 268 kts 313°
2026-04-26 16:58 47.55287 8.94151 6176 ft 267 kts 313°
2026-04-26 16:58 47.58236 8.89509 5318 ft 263 kts 313°
2026-04-26 16:59 47.59474 8.87523 4949 ft 262 kts 309°
2026-04-26 16:59 47.61133 8.82781 4211 ft 259 kts 294°
2026-04-26 17:00 47.62577 8.77939 3824 ft 259 kts 294°
2026-04-26 17:00 47.63627 8.72925 3816 ft 258 kts 271°
2026-04-26 17:00 47.63610 8.70266 3813 ft 257 kts 268°
2026-04-26 17:01 47.63540 8.67618 3814 ft 257 kts 268°
2026-04-26 17:01 47.63483 8.64975 3815 ft 257 kts 269°
2026-04-26 17:01 47.63432 8.62323 3813 ft 257 kts 268°
2026-04-26 17:01 47.63389 8.59675 3814 ft 257 kts 268°
2026-04-26 17:02 47.63039 8.57091 3819 ft 257 kts 249°
2026-04-26 17:02 47.62336 8.54671 3811 ft 252 kts 245°
2026-04-26 17:02 47.61617 8.52385 3812 ft 236 kts 245°
2026-04-26 17:02 47.60947 8.50245 3812 ft 224 kts 245°
2026-04-26 17:03 47.60291 8.48106 3814 ft 228 kts 246°
2026-04-26 17:03 47.59650 8.45967 3816 ft 227 kts 246°
2026-04-26 17:03 47.59014 8.43854 3811 ft 220 kts 242°
2026-04-26 17:03 47.57997 8.42339 3760 ft 205 kts 202°
2026-04-26 17:04 47.56646 8.42281 3631 ft 195 kts 156°
2026-04-26 17:04 47.55534 8.43431 3424 ft 196 kts 137°
2026-04-26 17:04 47.54577 8.44801 3201 ft 184 kts 135°
2026-04-26 17:04 47.53710 8.46044 2949 ft 162 kts 136°
2026-04-26 17:05 47.52942 8.47116 2756 ft 144 kts 137°
2026-04-26 17:05 47.52234 8.48088 2561 ft 132 kts 137°
2026-04-26 17:05 47.51547 8.49030 2391 ft 135 kts 137°
2026-04-26 17:05 47.50861 8.49973 2201 ft 134 kts 137°
2026-04-26 17:06 47.50182 8.50911 2006 ft 133 kts 137°
2026-04-26 17:06 47.49493 8.51851 1789 ft 133 kts 140°
2026-04-26 17:06 47.48815 8.52770 1635 ft 133 kts 137°
2026-04-26 17:06 47.48137 8.53691 1438 ft 131 kts 136°
2026-04-26 17:07 47.47515 8.54556 1399 ft 105 kts 137°
2026-04-26 17:07 47.47090 8.55132 1396 ft 64 kts 137°
2026-04-26 17:07 47.46784 8.55545 1398 ft 46 kts 142°
2026-04-26 17:07 47.46587 8.55681 1405 ft 30 kts 165°
2026-04-26 17:08 47.46523 8.55706 1403 ft 5 kts 165°
2026-04-26 17:08 47.46516 8.55709 1403 ft 0 kts 165°
2026-04-26 17:08 47.46453 8.55732 1400 ft 18 kts 166°
2026-04-26 17:09 47.46336 8.55824 1404 ft 20 kts 142°
2026-04-26 17:09 47.46271 8.55914 1403 ft 15 kts 134°
2026-04-26 17:09 47.46186 8.56011 1404 ft 9 kts 182°
2026-04-26 17:09 47.46122 8.55991 1400 ft 10 kts 185°
2026-04-26 17:10 47.46045 8.55980 1401 ft 12 kts 185°